Weather History for New Richmond, WI

Change the Weather History Date:

Thursday, February 16, 2012

  Actual Average (KMSP) Record (KMSP)
Temperature  
Mean Temperature 28 °F 21 °F  
Max Temperature 37 °F 29 °F 60 °F (1981)
Min Temperature 19 °F 13 °F -26 °F (1936)
Degree Days  
Heating Degree Days 37 44  
Month to date heating degree days 740  
Since 1 July heating degree days 5294  
Cooling Degree Days 0 0  
Month to date cooling degree days 0  
Year to date cooling degree days 0  
Moisture  
Dew Point 24 °F    
Average Humidity 82    
Maximum Humidity 100    
Minimum Humidity 52    
Precipitation  
Precipitation 0.00 in 0.03 in 0.40 in (1878)
Month to date precipitation 0.38  
Year to date precipitation 1.28  
Snow  
Snow 0.00 in 0.20 in 3.20 in (1938)
Month to date snowfall 4.1  
Since 1 July snowfall 38.1  
Snow Depth -    
Sea Level Pressure  
Sea Level Pressure 30.03 in    
Wind  
Wind Speed 7 mph (West)    
Max Wind Speed 22 mph    
Max Gust Speed 26 mph    
Visibility 8 miles    
Events      
T = Trace of Precipitation, MM = Missing Value Source: NWS Daily Summary

Daily Weather History Graph

Daily Weather History Graph

Search for Another Location

Airport:

Trip Planner

Search our weather history database for the weather conditions in past years. The results will help you decide how hot, cold, wet, or windy it might be!

Date:

Astronomy

Feb. 16, 2012 Rise Set
Actual Time 7:10 AM CST 5:38 PM CST
Civil Twilight 6:40 AM CST 6:08 PM CST
Nautical Twilight 6:05 AM CST 6:43 PM CST
Astronomical Twilight 5:31 AM CST 7:17 PM CST
Moon 3:16 AM CST (2/16) 12:21 PM CST (2/16)
Length of Visible Light 11h 28m
Length of Day
10h 28m
Waning Crescent, 28% of the Moon is Illuminated
Feb 16
Waning Crescent
Feb 21
New
Feb 29
First Quarter
Mar 8
Full
Mar 14
Last Quarter

Hourly Weather History & Observations

Time (CST) Temp. Windchill Dew Point Humidity Pressure Visibility Wind Dir Wind Speed Gust Speed Precip Events Conditions
12:35 AM 30.2 °F 23.4 °F 30.2 °F 100% 30.00 in 4.0 mi West 6.9 mph - N/A   Scattered Clouds
12:55 AM 28.4 °F 21.2 °F 28.4 °F 100% 30.00 in 4.0 mi West 6.9 mph - N/A   Clear
1:15 AM 28.4 °F 22.2 °F 28.4 °F 100% 30.01 in 4.0 mi West 5.8 mph - N/A   Clear
1:35 AM 28.4 °F 22.2 °F 28.4 °F 100% 30.01 in 4.0 mi West 5.8 mph - N/A   Clear
1:55 AM 26.6 °F 19.1 °F 26.6 °F 100% 30.01 in 3.0 mi West 6.9 mph - N/A   Clear
2:15 AM 26.6 °F 20.0 °F 26.6 °F 100% 30.01 in 4.0 mi West 5.8 mph - N/A   Clear
2:35 AM 26.6 °F 18.2 °F 26.6 °F 100% 30.01 in 5.0 mi West 8.1 mph - N/A   Clear
2:55 AM 26.6 °F 18.2 °F 26.6 °F 100% 30.01 in 7.0 mi West 8.1 mph - N/A   Clear
3:15 AM 26.6 °F 19.1 °F 26.6 °F 100% 30.01 in 7.0 mi West 6.9 mph - N/A   Clear
3:35 AM 26.6 °F 21.2 °F 26.6 °F 100% 30.01 in 7.0 mi WSW 4.6 mph - N/A   Clear
3:55 AM 26.6 °F 21.2 °F 26.6 °F 100% 30.02 in 5.0 mi WSW 4.6 mph - N/A   Clear
4:15 AM 24.8 °F - 24.8 °F 100% 30.02 in 5.0 mi Calm Calm - N/A   Clear
4:35 AM 24.8 °F - 24.8 °F 100% 30.02 in 5.0 mi Calm Calm - N/A   Clear
4:55 AM 23.0 °F - 23.0 °F 100% 30.02 in 4.0 mi Calm Calm - N/A   Clear
5:15 AM 21.2 °F - 21.2 °F 100% 30.02 in 3.0 mi Calm Calm - N/A   Clear
5:35 AM 19.4 °F 14.3 °F 19.4 °F 100% 30.02 in 5.0 mi SSW 3.5 mph - N/A   Clear
5:55 AM 23.0 °F 18.4 °F 23.0 °F 100% 30.02 in 5.0 mi SW 3.5 mph - N/A   Clear
6:15 AM 21.2 °F 14.9 °F 21.2 °F 100% 30.02 in 3.0 mi SW 4.6 mph - N/A   Clear
6:35 AM 23.0 °F 18.4 °F 23.0 °F 100% 30.01 in 7.0 mi SSW 3.5 mph - N/A   Scattered Clouds
6:55 AM 23.0 °F 17.0 °F 23.0 °F 100% 30.02 in 7.0 mi SSW 4.6 mph - N/A   Overcast
7:15 AM 23.0 °F 17.0 °F 23.0 °F 100% 30.02 in 7.0 mi South 4.6 mph - N/A   Overcast
7:35 AM 24.8 °F 17.9 °F 24.8 °F 100% 30.02 in 5.0 mi SSW 5.8 mph - N/A   Overcast
7:55 AM 24.8 °F 17.9 °F 24.8 °F 100% 30.02 in 7.0 mi SSW 5.8 mph - N/A   Overcast
8:15 AM 26.6 °F 20.0 °F 26.6 °F 100% 30.03 in 7.0 mi SSW 5.8 mph - N/A   Overcast
8:35 AM 26.6 °F 20.0 °F 26.6 °F 100% 30.03 in 10.0 mi WSW 5.8 mph - N/A   Mostly Cloudy
8:55 AM 28.4 °F 21.2 °F 26.6 °F 93% 30.03 in 10.0 mi SW 6.9 mph - N/A   Scattered Clouds
9:15 AM 30.2 °F 22.6 °F 28.4 °F 93% 30.03 in 10.0 mi West 8.1 mph - N/A   Scattered Clouds
9:35 AM 30.2 °F 22.6 °F 28.4 °F 93% 30.04 in 10.0 mi West 8.1 mph - N/A   Scattered Clouds
9:55 AM 30.2 °F 20.8 °F 26.6 °F 86% 30.05 in 10.0 mi West 11.5 mph - N/A   Clear
10:15 AM 32.0 °F 22.5 °F 28.4 °F 87% 30.05 in 10.0 mi West 12.7 mph - N/A   Scattered Clouds
10:35 AM 32.0 °F 23.0 °F 26.6 °F 80% 30.05 in 10.0 mi West 11.5 mph - N/A   Scattered Clouds
11:15 AM 33.8 °F 25.8 °F 26.6 °F 75% 30.05 in 10.0 mi West 10.4 mph 13.8 mph N/A   Clear
11:35 AM 33.8 °F 24.8 °F 26.6 °F 75% 30.05 in 10.0 mi West 12.7 mph 17.3 mph N/A   Clear
11:55 AM 33.8 °F 24.3 °F 26.6 °F 75% 30.05 in 10.0 mi West 13.8 mph - N/A   Scattered Clouds
12:15 PM 33.8 °F 22.8 °F 26.6 °F 75% 30.05 in 10.0 mi West 18.4 mph 24.2 mph N/A   Mostly Cloudy
12:35 PM 35.6 °F 24.2 °F 23.0 °F 60% 30.04 in 10.0 mi West 21.9 mph 26.5 mph N/A   Overcast
12:55 PM 35.6 °F 26.6 °F 23.0 °F 60% 30.04 in 10.0 mi WNW 13.8 mph - N/A   Mostly Cloudy
1:15 PM 35.6 °F 26.6 °F 23.0 °F 60% 30.03 in 10.0 mi WNW 13.8 mph 21.9 mph N/A   Mostly Cloudy
1:35 PM 37.4 °F 28.5 °F 23.0 °F 56% 30.02 in 10.0 mi West 15.0 mph 23.0 mph N/A   Mostly Cloudy
2:15 PM 35.6 °F 25.9 °F 19.4 °F 52% 30.01 in 10.0 mi WNW 16.1 mph 24.2 mph N/A   Mostly Cloudy
2:35 PM 37.4 °F 29.8 °F 21.2 °F 52% 30.01 in 10.0 mi West 11.5 mph 17.3 mph N/A   Scattered Clouds
3:15 PM 35.6 °F 26.6 °F 19.4 °F 52% 30.02 in 10.0 mi WNW 13.8 mph - N/A   Overcast
3:35 PM 35.6 °F 27.1 °F 21.2 °F 56% 30.03 in 10.0 mi WNW 12.7 mph 19.6 mph N/A   Overcast
3:55 PM 35.6 °F 27.5 °F 21.2 °F 56% 30.03 in 10.0 mi WNW 11.5 mph - N/A   Overcast
4:15 PM 33.8 °F 27.0 °F 21.2 °F 60% 30.03 in 10.0 mi West 8.1 mph - N/A   Mostly Cloudy
4:35 PM 33.8 °F 27.7 °F 21.2 °F 60% 30.03 in 10.0 mi West 6.9 mph - N/A   Mostly Cloudy
4:55 PM 33.8 °F 28.6 °F 21.2 °F 60% 30.03 in 10.0 mi West 5.8 mph - N/A   Scattered Clouds
5:15 PM 33.8 °F 27.0 °F 21.2 °F 60% 30.03 in 10.0 mi West 8.1 mph - N/A   Scattered Clouds
5:35 PM 32.0 °F 26.4 °F 21.2 °F 64% 30.04 in 10.0 mi West 5.8 mph - N/A   Mostly Cloudy
6:15 PM 32.0 °F 25.6 °F 19.4 °F 60% 30.04 in 10.0 mi West 6.9 mph - N/A   Clear
6:35 PM 30.2 °F 24.3 °F 19.4 °F 64% 30.05 in 10.0 mi West 5.8 mph - N/A   Clear
6:55 PM 30.2 °F 26.7 °F 17.6 °F 60% 30.05 in 10.0 mi West 3.5 mph - N/A   Clear
7:15 PM 30.2 °F 26.7 °F 17.6 °F 60% 30.05 in 10.0 mi West 3.5 mph - N/A   Clear
7:35 PM 28.4 °F 23.3 °F 17.6 °F 64% 30.05 in 10.0 mi West 4.6 mph - N/A   Clear
7:55 PM 26.6 °F 21.2 °F 19.4 °F 74% 30.05 in 10.0 mi WSW 4.6 mph - N/A   Clear
8:15 PM 26.6 °F 20.0 °F 19.4 °F 74% 30.05 in 10.0 mi West 5.8 mph - N/A   Clear
8:35 PM 28.4 °F 22.2 °F 19.4 °F 69% 30.05 in 10.0 mi WSW 5.8 mph - N/A   Clear
8:55 PM 26.6 °F 20.0 °F 19.4 °F 74% 30.05 in 10.0 mi WSW 5.8 mph - N/A   Clear
9:15 PM 26.6 °F 21.2 °F 19.4 °F 74% 30.05 in 10.0 mi WSW 4.6 mph - N/A   Clear
9:35 PM 26.6 °F - 19.4 °F 74% 30.05 in 10.0 mi Calm Calm - N/A   Clear
9:55 PM 26.6 °F - 19.4 °F 74% 30.05 in 10.0 mi Calm Calm - N/A   Clear
10:15 PM 24.8 °F - 19.4 °F 80% 30.05 in 10.0 mi Calm Calm - N/A   Scattered Clouds
10:35 PM 24.8 °F - 19.4 °F 80% 30.04 in 10.0 mi Calm Calm - N/A   Clear
10:55 PM 23.0 °F 17.0 °F 19.4 °F 86% 30.04 in 10.0 mi South 4.6 mph - N/A   Clear
11:15 PM 23.0 °F 18.4 °F 17.6 °F 80% 30.04 in 10.0 mi South 3.5 mph - N/A   Clear
11:35 PM 21.2 °F 16.4 °F 19.4 °F 93% 30.03 in 10.0 mi South 3.5 mph - N/A   Mostly Cloudy
11:55 PM 21.2 °F 16.4 °F 19.4 °F 93% 30.03 in 10.0 mi South 3.5 mph - N/A   Overcast